Home   Weather   Pangnirtung   Past weeks
Flag for Canada

Past Weather in Pangnirtung, Nunavut, Canada — Yesterday and Last 2 Weeks

Now
45 °F

Mostly cloudy.


Feels Like: 45 °F
Forecast: 50 / 39 °F
Wind: 2 mph from East

Location: Pangnirtung Airport

Current Time: Aug 24, 2019 at 3:53:56 am

Latest Report: Aug 24, 2019 at 3:00 am


Visibility: 15 mi

Pressure: 29.92 "Hg

Humidity: 87%

Dew Point: 41 °F

Location of PangnirtungLocation

Past Weather in Pangnirtung — Graph

°F

Pangnirtung Temperature Yesterday

Maximum temperature yesterday: 48 °F (at 10:00 am)
Minimum temperature yesterday: 43 °F (at 1:01 am)
Average temperature yesterday: 46 °F

High & Low Weather Summary for the Past Weeks

 TemperatureHumidityPressure
High57 °F (Aug 13, 12:00 pm)100% (Aug 9, 7:00 am)30.18 "Hg (Aug 9, 7:00 am)
Low41 °F (Aug 9, 7:00 am)48% (Aug 13, 12:00 pm)29.74 "Hg (Aug 16, 2:00 pm)
Average47 °F85%29.99 "Hg
* Reported Aug 9 7:00 am — Aug 24 1:00 am, Pangnirtung. Weather by CustomWeather, © 2019

Note: Actual official high and low records may vary slightly from our data, if they occured in-between our weather recording intervals... More about our weather records

Advertising

Pangnirtung Weather History for the Previous 24 Hours

Scroll right to see more
 ConditionsComfort  
Time TempWeatherWind HumidityBarometerVisibility
1:00 am
Sat, Aug 24
43 °FOvercast.No wind93%29.94 "Hg15 mi
12:19 am43 °FOvercast.No wind93%29.95 "Hg15 mi
6:00 pm
Fri, Aug 23
45 °FPartly sunny.10 mph93%30.01 "Hg15 mi
5:00 pm48 °FPartly sunny.12 mph87%30.01 "Hg15 mi
4:00 pm48 °FPartly sunny.13 mph82%30.02 "Hg15 mi
3:00 pm45 °FPartly sunny.18 mph93%30.03 "Hg15 mi
2:00 pm45 °FBroken clouds.20 mph93%30.03 "Hg15 mi
1:44 pm46 °FBroken clouds.21 mph87%30.03 "Hg15 mi
1:00 pm48 °FPartly sunny.18 mph87%30.04 "Hg15 mi
12:00 pm48 °FScattered clouds.15 mph87%30.04 "Hg15 mi
11:00 am48 °FScattered clouds.9 mph82%30.05 "Hg15 mi
10:00 am48 °FScattered clouds.7 mph82%30.06 "Hg15 mi
9:00 am46 °FScattered clouds.6 mph87%30.07 "Hg15 mi
8:00 am46 °FScattered clouds.8 mph87%30.07 "Hg15 mi
7:00 am45 °FScattered clouds.2 mph87%30.06 "Hg15 mi
4:00 am45 °FPassing clouds.No wind81%30.03 "Hg15 mi
3:00 am43 °FClear.6 mph87%30.03 "Hg15 mi
Weather by CustomWeather, © 2019

See weather overview